TimeCDT,TemperatureF,Dew PointF,Humidity,Sea Level PressureIn,VisibilityMPH,Wind Direction,Wind SpeedMPH,Gust SpeedMPH,PrecipitationIn,Events,Conditions,WindDirDegrees,DateUTC
12:53 AM,35.1,27.0,72,30.15,10.0,South,3.5,-,N/A,,Clear,180,2012-10-08 05:53:00
1:53 AM,34.0,28.0,79,30.15,10.0,South,4.6,-,N/A,,Clear,190,2012-10-08 06:53:00
2:53 AM,34.0,28.9,82,30.14,10.0,South,5.8,-,N/A,,Clear,190,2012-10-08 07:53:00
3:53 AM,34.0,28.9,82,30.12,10.0,South,5.8,-,N/A,,Clear,190,2012-10-08 08:53:00
4:53 AM,34.0,28.9,82,30.12,10.0,South,6.9,-,N/A,,Clear,190,2012-10-08 09:53:00
5:53 AM,33.1,28.9,85,30.12,10.0,South,6.9,-,N/A,,Clear,190,2012-10-08 10:53:00
6:53 AM,33.1,28.9,85,30.13,10.0,South,5.8,-,N/A,,Clear,190,2012-10-08 11:53:00
7:53 AM,35.1,30.9,85,30.14,10.0,SSW,4.6,-,N/A,,Clear,200,2012-10-08 12:53:00
8:53 AM,42.1,33.1,70,30.14,10.0,SSW,8.1,-,N/A,,Clear,200,2012-10-08 13:53:00
9:53 AM,46.9,35.1,63,30.13,10.0,SW,11.5,-,N/A,,Clear,220,2012-10-08 14:53:00
10:53 AM,54.0,35.1,49,30.11,10.0,SW,15.0,18.4,N/A,,Clear,220,2012-10-08 15:53:00
11:53 AM,57.0,33.1,40,30.09,10.0,SSW,18.4,27.6,N/A,,Clear,210,2012-10-08 16:53:00
12:53 PM,59.0,32.0,36,30.06,9.0,South,20.7,26.5,N/A,,Clear,190,2012-10-08 17:53:00
1:53 PM,60.1,30.0,32,30.03,10.0,SW,24.2,28.8,N/A,,Clear,230,2012-10-08 18:53:00
2:53 PM,61.0,32.0,34,30.01,9.0,SW,18.4,29.9,N/A,,Clear,220,2012-10-08 19:53:00
3:53 PM,61.0,30.0,31,29.98,8.0,SSW,18.4,27.6,N/A,,Clear,200,2012-10-08 20:53:00
4:53 PM,60.1,30.9,33,29.97,10.0,SW,20.7,26.5,N/A,,Clear,220,2012-10-08 21:53:00
5:53 PM,57.9,32.0,37,29.97,10.0,SSW,12.7,-,N/A,,Clear,200,2012-10-08 22:53:00
6:53 PM,55.0,33.1,43,29.98,10.0,SSW,10.4,-,N/A,,Clear,200,2012-10-08 23:53:00
7:53 PM,52.0,33.1,49,29.99,10.0,South,9.2,-,N/A,,Clear,190,2012-10-09 00:53:00
8:53 PM,51.1,33.1,50,29.99,10.0,South,9.2,-,N/A,,Clear,190,2012-10-09 01:53:00
9:53 PM,51.1,34.0,52,30.00,10.0,South,10.4,-,N/A,,Clear,190,2012-10-09 02:53:00
10:53 PM,48.0,34.0,58,29.99,10.0,South,8.1,-,N/A,,Clear,190,2012-10-09 03:53:00
11:53 PM,46.4,33.8,62,29.97,10.0,SSW,10.4,-,N/A,,Clear,200,2012-10-09 04:53:00